Regional Weather Roundup
Issued by NWS

Home | Current Version | Previous Version | Graphics & Text | Print | Product List | Glossary On
Versions: 1 2 3 4 5 6 7 8 9 10 11 12 13 14 15 16 17 18 19 20 21 22 23 24 25 26 27 28 29 30 31 32 33 34 35 36 37 38 39 40 41 42 43 44 45 46 47 48 49 50
000
ASUS43 KLMK 221610
RWRKY
KENTUCKY REGIONAL WEATHER ROUNDUP
NATIONAL WEATHER SERVICE LOUISVILLE KY
1200 PM EDT SUN APR 22 2018

NOTE "FAIR" INDICATES FEW OR NO CLOUDS BELOW 12,000 FEET
WITH NO SIGNIFICANT WEATHER AND/OR OBSTRUCTIONS TO VISIBILITY.

KYZ001>023-026-027-061>063-070>075-221700-
WESTERN AND SOUTH CENTRAL KENTUCKY

CITY           SKY/WX    TMP DP  RH WIND       PRES   REMARKS
PADUCAH        LGT RAIN  53  46  77 E10       30.09F
HENDERSON      FAIR      63  42  46 E9        30.15F
OWENSBORO      FAIR      66  42  41 E12       30.16S
HOPKINSVILLE   LGT RAIN  55  55 100 E9        30.11F
BOWLING GREEN  PTSUNNY   61  45  55 SE7       30.18R
GLASGOW        PTSUNNY   61  41  47 E6        30.19S
$$

KYZ024-025-028>034-038-045-046-053-221700-
NORTH CENTRAL KENTUCKY

CITY           SKY/WX    TMP DP  RH WIND       PRES   REMARKS
LOUISVILLE/SDF PTSUNNY   66  34  30 NE6       30.20F
LOUISVILLE/LOU FAIR      66  37  34 E6        30.21F
FORT KNOX      FAIR      65  35  33 NE8       30.20F
$$

KYZ035>037-039>044-047>052-055>060-089>105-221700-
NORTHEAST KENTUCKY

CITY           SKY/WX    TMP DP  RH WIND       PRES   REMARKS
LEXINGTON      FAIR      67  37  33 VRB5      30.24S
COVINGTON      CLOUDY    58  30  34 E13       30.27R
FRANKFORT      FAIR      64  34  32 E8        30.22F
$$

KYZ054-064>069-076>088-106>120-221700-
SOUTHEAST KENTUCKY

CITY           SKY/WX    TMP DP  RH WIND       PRES   REMARKS
JACKSON        FAIR      66  34  30 CALM      30.25F
LONDON         FAIR      64  39  39 VRB3      30.24S
SOMERSET       FAIR      61  36  39 MISG      30.25S
MIDDLESBORO    FAIR      64  40  41 CALM      30.26S
MONTICELLO     PTSUNNY   60  42  51 W5        30.24S
$$




USA.gov is the U.S. government's official web portal to all federal, state and local government web resources and services.